Regional Weather Roundup
Issued by NWS

Home | Current Version | Previous Version | Graphics & Text | Print | Product List | Glossary On
Versions: 1 2 3 4 5 6 7 8 9 10 11 12 13 14 15 16 17 18 19 20 21 22 23 24 25 26 27 28 29 30 31 32 33 34 35 36 37 38 39 40 41 42 43 44 45 46 47 48 49 50
000
ASUS43 KLSX 060707
RWRMO

WEATHER SUMMARY FOR MISSOURI
NATIONAL WEATHER SERVICE SPRINGFIELD MO
200 AM CDT FRI MAY 06 2016

NOTE: "FAIR" INDICATES FEW OR NO CLOUDS BELOW 12,000 FEET WITH NO
       SIGNIFICANT WEATHER AND/OR OBSTRUCTIONS TO VISIBILITY.
       CURRENT SKY AND/OR WEATHER CONDITIONS ARE NOT AVAILABLE FOR
       CHILLICOTHE AND FARMINGTON.

MOZ001>031-035>038-043-044-053-054-060800-
...NORTHERN AND WESTERN MISSOURI...

CITY           SKY/WX    TMP DP  RH WIND       PRES   REMARKS
KANSAS CTY INT PTCLDY    54  41  61 S7        30.05S
KANSAS C DTWN  CLEAR     54  46  74 CALM      30.05S
LEE`S SUMMIT   PTCLDY    54  42  64 SW3       30.06S
ST JOSEPH      PTCLDY    52  47  83 CALM      30.04F
CHILLICOTHE      N/A     47  45  93 CALM      30.05F
KIRKSVILLE     CLEAR     46  39  76 SW5       30.04S

$$
MOZ066>068-077>081-088>096-101>105-060800-
...SOUTHWEST MISSOURI...

CITY           SKY/WX    TMP DP  RH WIND       PRES   REMARKS
SPRINGFIELD    PTCLDY    45  37  73 S3        30.06S
JOPLIN         CLEAR     50  44  80 CALM      30.07F

$$
MOZ032>034-039>042-045>050-055>058-069>072-060800-
...CENTRAL MISSOURI...

CITY           SKY/WX    TMP DP  RH WIND       PRES   REMARKS
COLUMBIA       CLEAR     50  40  68 SE5       30.06R
JEFFERSON CITY CLEAR     45  42  89 CALM      30.07R
ROLLA          CLEAR     41  37  86 S3        30.05S
SEDALIA        CLEAR     52  39  61 S7        30.07S
WHITEMAN AFB   CLEAR     49  43  78 E1        30.04F
WARRENSBURG    CLEAR     46  43  87 CALM      30.06S
OSAGE BEACH    CLEAR     43  32  65 CALM      30.07S

$$
MOZ051-052-059>065-060800-
...EAST CENTRAL MISSOURI...

CITY           SKY/WX    TMP DP  RH WIND       PRES   REMARKS
ST LOUIS INTL  CLEAR     53  43  68 W3        30.05R
SPIRIT OF STL  CLEAR     46  44  93 CALM      30.04S
ST CHARLES     CLEAR     49  46  90 CALM      30.04R

$$
MOZ072>076-082>087-097>100-106>115-060800-
...SOUTH CENTRAL AND SOUTHEAST MISSOURI...

CITY           SKY/WX    TMP DP  RH WIND       PRES   REMARKS
CAPE GIRARDEAU PTCLDY    45  43  93 W5        30.03S
FARMINGTON     CLEAR     44  42  93 CALM      30.06S
POPLAR BLUFF   PTCLDY    49  45  86 CALM      30.04F
WEST PLAINS    CLEAR     43  37  79 CALM      30.08S

$$



USA.gov is the U.S. government's official web portal to all federal, state and local government web resources and services.